Flag for Pakistan Weather past 2 weeks in Haripur, Pakistan

Now
41 °F

Haze.


Feels Like: 41 °F
Forecast: 39 / 57 °F
Wind: No wind

Location: Islamabad Airport

Current Time: Jan 25, 2015 at 9:31:35 AM

Latest Report: Jan 25, 2015 at 8:00 AM


Visibility: 2 mi

Pressure: 30.15 "Hg

Humidity: 87%

Dew point: 37 °F

Location of HaripurLocation

Historic Weather in Haripur — Graph

°F

Haripur temperature yesterday

Maximum temperature yesterday: 63 °F (at 1:00 PM)
Minimum temperature yesterday: 39 °F (at 7:00 AM)
Average temperature yesterday: 50 °F

Past Weeks' High & Low Weather Summary

 TemperatureHumidityPressure
High73 °F (Jan 11, 3:00 PM)100% (Jan 12, 7:00 AM)30.27 "Hg (Jan 12, 7:00 AM)
Low39 °F (Jan 11, 7:00 AM)28% (Jan 17, 4:00 PM)30.01 "Hg (Jan 11, 3:00 PM)
Average52 °F74%30.13 "Hg
* Reported Jan 10 10:00 AM — Jan 25 8:00 AM, Haripur, Weather by CustomWeather, © 2014

Note: Actual official high and low records may vary slightly from our data, if they occured in-between our weather recording intervals... More about our weather records

Advertising

Haripur weather history for previous 24 hours

 ConditionsComfort  
Time TempWeatherWind HumidityBarometerVisibility
8:00 AM
Jan 25
41 °FHaze.No wind87%30.15 "Hg2 mi
7:00 AM41 °FQuite cool.N/A87%30.15 "HgN/A
11:00 PM
Jan 24
50 °FPassing clouds.No wind71%30.18 "Hg4 mi
10:00 PM50 °FPassing clouds.No wind76%30.18 "Hg5 mi
9:00 PM52 °FPassing clouds.No wind77%30.18 "Hg5 mi
8:00 PM54 °FClear.No wind72%30.15 "Hg10 mi
7:00 PM55 °FClear.No wind63%30.15 "Hg10 mi
6:00 PM59 °FPassing clouds.No wind59%30.15 "Hg5 mi
5:00 PM61 °FPartly sunny.5 mph55%30.12 "Hg2 mi
4:00 PM63 °FScattered clouds.5 mph56%30.12 "Hg2 mi
2:00 PM63 °FScattered clouds.5 mph56%30.12 "Hg2 mi
1:00 PM63 °FScattered clouds.5 mph56%30.18 "Hg2 mi
12:00 PM57 °FScattered clouds.7 mph67%30.18 "Hg2 mi
11:00 AM52 °FHaze.5 mph77%30.18 "Hg1 mi
10:00 AM46 °FFog.9 mph87%30.18 "Hg1 mi
9:00 AM41 °FFog.No wind93%30.18 "Hg1 mi
Weather by CustomWeather, © 2014

See weather overviewHow to use our weather pages